Punkttermin-Prognose für Kampen / Sylt
Modell: MOSMIX (Deutscher Wetterdienst)
Modelllaufzeit: 02 UTC
Aktualisierung: stündlich
Sonntag - 07.06.2020
| Wetter - | Temperaturen | Wind | Niederschlag | Druck | Sonne
Zeit GZ | Bewölkung | TT MAX MIN TG TM | DD FF FX1 | RR1 RR24 | PPPP | SS1 SS24
02:00 Uhr | --- | --- --- --- --- --- | --- --- --- | --- | --- | ---
03:00 Uhr | --- | --- --- --- --- --- | --- --- --- | --- | --- | ---
04:00 Uhr | --- | --- --- --- --- --- | --- --- --- | --- | --- | ---
05:00 Uhr | starker Regenschauer | 12 --- --- 11 --- | S 28 43 | 0.4 | 1000 | 0.0
06:00 Uhr | Regenschauer | 12 --- --- 11 --- | S 28 43 | 0.2 | 1000 | 0.1
07:00 Uhr | Regenschauer | 13 --- --- 12 --- | S 28 41 | 0.2 | 1000 | 0.2
08:00 Uhr | Regenschauer | 13 --- 11 13 --- | S 28 43 | 0.2 | 1001 | 0.4
09:00 Uhr | Regenschauer | 14 --- --- 15 --- | S 28 43 | 0.2 | 1001 | 0.4
10:00 Uhr | Regenschauer | 14 --- --- 16 --- | S 28 41 | 0.2 | 1002 | 0.5
11:00 Uhr | wolkig | 14 --- --- 17 --- | S 26 41 | 0.0 | 1002 | 0.5
12:00 Uhr | wolkig | 14 --- --- 18 --- | S 26 --- | 0.0 | 1003 | 0.5
13:00 Uhr | wolkig | 14 --- --- 19 --- | S 26 --- | 0.0 | 1003 | 0.5
14:00 Uhr | Regenschauer | 14 --- --- 19 --- | S 22 --- | 0.1 | 1004 | 0.5
15:00 Uhr | Regenschauer | 14 --- --- 18 --- | S 20 --- | 0.1 | 1004 | 0.5
16:00 Uhr | Regenschauer | 14 --- --- 17 --- | S 17 --- | 0.2 | 1004 | 0.4
17:00 Uhr | Regenschauer | 14 --- --- 17 --- | SW 15 --- | 0.2 | 1004 | 0.4
18:00 Uhr | Regenschauer | 14 --- --- 16 --- | W 17 --- | 0.2 | 1005 | 0.4
19:00 Uhr | Regenschauer | 14 --- --- 15 --- | W 18 --- | 0.2 | 1006 | 0.4
20:00 Uhr | wolkig | 13 16 --- 14 --- | NW 18 --- | 0.0 | 1007 | 0.3
21:00 Uhr | wolkig | 13 --- --- 12 --- | NW 18 --- | 0.0 | 1007 | 0.3
22:00 Uhr | wolkig | 12 --- --- 12 --- | NW 18 --- | 0.0 | 1008 | 0.1
23:00 Uhr | wolkig | 12 --- --- 11 --- | NW 18 --- | 0.0 | 1009 | 0.0
Montag - 08.06.2020
| Wetter - | Temperaturen | Wind | Niederschlag | Druck | Sonne
Zeit GZ | Bewölkung | TT MAX MIN TG TM | DD FF FX1 | RR1 RR24 | PPPP | SS1 SS24
00:00 Uhr | wolkig | 12 --- --- 10 --- | W 18 --- | 0.0 | 1009 | 0.0
01:00 Uhr | wolkig | 12 --- --- 10 --- | W 18 --- | 0.0 | 1009 | 0.0
02:00 Uhr | wolkig | 12 --- --- 10 --- | W 18 --- | 0.0 | 1010 | 0.0
03:00 Uhr | wolkig | 12 --- --- 10 --- | W 18 --- | 0.0 | 1010 | 0.0
04:00 Uhr | wolkig | 12 --- --- 10 --- | W 17 --- | 0.0 | 1010 | 0.0
05:00 Uhr | wolkig | 12 --- --- 10 --- | NW 18 --- | 0.0 | 1011 | 0.1
06:00 Uhr | wolkig | 12 --- --- 11 --- | NW 18 --- | 0.0 | 1011 | 0.2
07:00 Uhr | wolkig | 12 --- --- 12 --- | NW 18 --- | 0.0 | 1012 | 0.3
08:00 Uhr | wolkig | 12 --- 11 13 --- | NW 18 --- | 0.0 | 1012 | 0.3
09:00 Uhr | wolkig | 13 --- --- 14 --- | NW 20 --- | 0.0 | 1013 | 0.3
10:00 Uhr | wolkig | 13 --- --- 16 --- | NW 22 --- | 0.0 | 1013 | 0.3
11:00 Uhr | wolkig | 13 --- --- 16 --- | NW 24 --- | 0.0 | 1014 | 0.4
12:00 Uhr | wolkig | 13 --- --- 17 --- | NW 24 --- | 0.0 | 1014 | 0.4
13:00 Uhr | wolkig | 13 --- --- 18 --- | NW 26 --- | 0.0 | 1015 | 0.5
14:00 Uhr | wolkig | 13 --- --- 18 --- | NW 28 --- | 0.0 | 1015 | 0.5
15:00 Uhr | wolkig | 13 --- --- 18 --- | NW 28 41 | 0.0 | 1016 | 0.6
16:00 Uhr | wolkig | 13 --- --- 17 --- | NW 30 41 | 0.0 | 1016 | 0.5
17:00 Uhr | wolkig | 12 --- --- 16 --- | NW 30 41 | 0.0 | 1016 | 0.5
18:00 Uhr | wolkig | 12 --- --- 16 --- | NW 30 43 | 0.0 | 1016 | 0.5
19:00 Uhr | wolkig | 12 --- --- 14 --- | NW 28 41 | 0.0 | 1016 | 0.5
20:00 Uhr | wolkig | 11 14 --- 12 --- | NW 28 --- | 0.0 | 1017 | 0.4
21:00 Uhr | wolkig | 11 --- --- 11 --- | NW 24 --- | 0.0 | 1017 | 0.3
22:00 Uhr | wolkig | 10 --- --- 10 --- | NW 24 --- | 0.0 | 1017 | 0.1
23:00 Uhr | wolkig | 10 --- --- 9 12 | NW 22 --- | 0.0 0.0 | 1017 | 0.1 6.5
Dienstag - 09.06.2020
| Wetter - | Temperaturen | Wind | Niederschlag | Druck | Sonne
Zeit GZ | Bewölkung | TT MAX MIN TG TM | DD FF FX1 | RR1 RR24 | PPPP | SS1 SS24
00:00 Uhr | wolkig | 10 --- --- 9 --- | NW 20 --- | 0.0 | 1018 | 0.0
01:00 Uhr | wolkig | 10 --- --- 9 --- | NW 18 --- | 0.0 | 1018 | 0.0
02:00 Uhr | wolkig | 10 --- --- 9 --- | NW 17 --- | 0.0 | 1018 | 0.0
03:00 Uhr | wolkig | 10 --- --- 9 --- | NW 17 --- | 0.0 | 1018 | 0.0
04:00 Uhr | wolkig | 10 --- --- 9 --- | NW 17 --- | 0.0 | 1018 | 0.0
05:00 Uhr | wolkig | 10 --- --- 9 --- | NW 17 --- | 0.0 | 1018 | 0.0
06:00 Uhr | wolkig | 10 --- --- 9 --- | NW 17 --- | 0.0 | 1018 | 0.1
07:00 Uhr | wolkig | 11 --- --- 11 --- | NW 15 --- | 0.0 | 1018 | 0.2
08:00 Uhr | wolkig | 11 --- 9 12 --- | NW 15 --- | 0.0 | 1019 | 0.3
09:00 Uhr | wolkig | 12 --- --- 14 --- | NW 17 --- | 0.0 | 1019 | 0.4
10:00 Uhr | wolkig | 12 --- --- 15 --- | NW 17 --- | 0.0 | 1019 | 0.4
11:00 Uhr | wolkig | 12 --- --- 17 --- | NW 18 --- | 0.0 | 1019 | 0.5
12:00 Uhr | wolkig | 13 --- --- 18 --- | NW 18 --- | 0.0 | 1020 | 0.5
13:00 Uhr | wolkig | 13 --- --- 18 --- | W 20 --- | 0.0 | 1020 | 0.5
14:00 Uhr | wolkig | 13 --- --- 19 --- | NW 20 --- | 0.0 | 1020 | 0.6
15:00 Uhr | wolkig | 13 --- --- 19 --- | NW 20 --- | 0.0 | 1020 | 0.6
16:00 Uhr | wolkig | 13 --- --- 18 --- | NW 20 --- | 0.0 | 1020 | 0.6
17:00 Uhr | wolkig | 13 --- --- 17 --- | NW 20 --- | 0.0 | 1020 | 0.6
18:00 Uhr | wolkig | 12 --- --- 16 --- | NW 20 --- | 0.0 | 1020 | 0.6
19:00 Uhr | wolkig | 12 --- --- 14 --- | NW 20 --- | 0.0 | 1020 | 0.5
20:00 Uhr | wolkig | 12 14 --- 13 --- | NW 18 --- | 0.0 | 1020 | 0.4
21:00 Uhr | wolkig | 11 --- --- 11 --- | NW 18 --- | 0.0 | 1020 | 0.3
22:00 Uhr | wolkig | 11 --- --- 10 --- | NW 17 --- | 0.0 | 1020 | 0.2
23:00 Uhr | wolkig | 11 --- --- 9 12 | NW 15 --- | 0.0 0.0 | 1020 | 0.1 7.2
Mittwoch - 10.06.2020
| Wetter - | Temperaturen | Wind | Niederschlag | Druck | Sonne
Zeit GZ | Bewölkung | TT MAX MIN TG TM | DD FF FX3 | RR3 RR24 | PPPP | SS3 SS24
02:00 Uhr | wolkig | 10 --- --- 9 --- | NW 13 --- | 0.0 | 1020 | 0.0
05:00 Uhr | wolkig | 10 --- --- 9 --- | NW 11 --- | 0.0 | 1020 | 0.1
08:00 Uhr | wolkig | 12 --- 10 13 --- | NW 11 --- | 0.0 | 1020 | 0.7
11:00 Uhr | wolkig | 13 --- --- 18 --- | NW 13 --- | 0.0 | 1020 | 1.2
14:00 Uhr | wolkig | 14 --- --- 20 --- | NW 17 --- | 0.0 | 1020 | 1.4
17:00 Uhr | wolkig | 14 --- --- 18 --- | NW 18 --- | 0.0 | 1019 | 1.5
20:00 Uhr | wolkig | 13 15 --- 14 --- | N 18 --- | 0.0 | 1019 | 1.4
23:00 Uhr | wolkig | 12 --- --- 11 12 | N 17 --- | 0.0 0.0 | 1019 | 0.6 6.8
Donnerstag - 11.06.2020
| Wetter - | Temperaturen | Wind | Niederschlag | Druck | Sonne
Zeit GZ | Bewölkung | TT MAX MIN TG TM | DD FF FX3 | RR3 RR24 | PPPP | SS3 SS24
02:00 Uhr | wolkig | 12 --- --- 11 --- | NO 17 --- | 0.0 | 1018 | 0.0
05:00 Uhr | wolkig | 12 --- --- 11 --- | N 17 --- | 0.0 | 1017 | 0.1
08:00 Uhr | wolkig | 13 --- 11 14 --- | N 18 --- | 0.0 | 1017 | 0.8
11:00 Uhr | wolkig | 15 --- --- 17 --- | N 22 --- | 0.0 | 1017 | 1.3
14:00 Uhr | wolkig | 17 --- --- 20 --- | N 24 --- | 0.0 | 1016 | 1.5
17:00 Uhr | wolkig | 17 --- --- 20 --- | N 26 --- | 0.0 | 1016 | 1.6
20:00 Uhr | wolkig | 16 18 --- 17 --- | N 26 43 | 0.0 | 1015 | 1.3
23:00 Uhr | wolkig | 15 --- --- 14 15 | NO 24 --- | 0.0 0.0 | 1015 | 0.6 7.1
Freitag - 12.06.2020
| Wetter - | Temperaturen | Wind | Niederschlag | Druck | Sonne
Zeit GZ | Bewölkung | TT MAX MIN TG TM | DD FF FX3 | RR3 RR24 | PPPP | SS3 SS24
02:00 Uhr | wolkig | 14 --- --- 13 --- | NO 24 --- | 0.0 | 1015 | 0.0
05:00 Uhr | wolkig | 14 --- --- 13 --- | NO 22 --- | 0.0 | 1014 | 0.1
08:00 Uhr | wolkig | 15 --- 13 15 --- | NO 22 --- | 0.0 | 1014 | 0.7
11:00 Uhr | wolkig | 17 --- --- 20 --- | NO 20 --- | 0.0 | 1015 | 1.5
14:00 Uhr | wolkig | 18 --- --- 23 --- | NO 22 --- | 0.0 | 1015 | 1.6
17:00 Uhr | wolkig | 18 --- --- 22 --- | NO 24 --- | 0.0 | 1014 | 1.7
20:00 Uhr | wolkig | 17 20 --- 18 --- | O 24 --- | 0.0 | 1014 | 1.6
23:00 Uhr | wolkig | 16 --- --- 14 16 | O 22 --- | 0.0 0.0 | 1014 | 0.7 7.7
Samstag - 13.06.2020
| Wetter - | Temperaturen | Wind | Niederschlag | Druck | Sonne
Zeit GZ | Bewölkung | TT MAX MIN TG TM | DD FF FX3 | RR3 RR24 | PPPP | SS3 SS24
02:00 Uhr | wolkig | 15 --- --- 14 --- | O 22 --- | 0.0 | 1014 | 0.0
05:00 Uhr | wolkig | 14 --- --- 13 --- | O 20 --- | 0.0 | 1014 | 0.1
08:00 Uhr | wolkig | 15 --- 14 16 --- | O 20 --- | 0.0 | 1014 | 0.8
11:00 Uhr | wolkig | 17 --- --- 21 --- | O 22 --- | 0.0 | 1014 | 1.4
14:00 Uhr | wolkig | 18 --- --- 23 --- | O 24 --- | 0.0 | 1013 | 1.6
17:00 Uhr | wolkig | 18 --- --- 22 --- | NO 24 --- | 0.0 | 1014 | 1.6
20:00 Uhr | wolkig | 17 20 --- 18 --- | NO 22 --- | 0.0 | 1013 | 1.4
23:00 Uhr | wolkig | 16 --- --- 15 16 | NO 22 --- | 0.0 0.0 | 1013 | 0.6 7.3
Sonntag - 14.06.2020
| Wetter - | Temperaturen | Wind | Niederschlag | Druck | Sonne
Zeit GZ | Bewölkung | TT MAX MIN TG TM | DD FF FX3 | RR3 RR24 | PPPP | SS3 SS24
02:00 Uhr | wolkig | 15 --- --- 14 --- | NO 22 --- | 0.0 | 1013 | 0.0
05:00 Uhr | wolkig | 15 --- --- 14 --- | NO 22 --- | 0.0 | 1013 | 0.1
08:00 Uhr | wolkig | 16 --- 14 17 --- | O 20 --- | 0.0 | 1013 | 0.7
11:00 Uhr | wolkig | 18 --- --- 22 --- | NO 20 --- | 0.0 | 1013 | 1.3
14:00 Uhr | wolkig | 20 --- --- 26 --- | NO 22 --- | 0.0 | 1013 | 1.7
17:00 Uhr | wolkig | 20 --- --- 24 --- | NO 22 --- | 0.0 | 1013 | 1.7
20:00 Uhr | wolkig | 18 22 --- 20 --- | O 20 --- | 0.0 | 1013 | 1.5
23:00 Uhr | wolkig | 17 --- --- 16 17 | O 20 --- | 0.0 0.0 | 1014 | 0.6 7.5
Montag - 15.06.2020
| Wetter - | Temperaturen | Wind | Niederschlag | Druck | Sonne
Zeit GZ | Bewölkung | TT MAX MIN TG TM | DD FF FX3 | RR3 RR24 | PPPP | SS3 SS24
02:00 Uhr | wolkig | 16 --- --- 15 --- | O 20 --- | 0.0 | 1014 | 0.0
05:00 Uhr | wolkig | 16 --- --- 15 --- | NO 18 --- | 0.0 | 1013 | 0.1
08:00 Uhr | wolkig | 16 --- 15 17 --- | NO 18 --- | 0.0 | 1014 | 0.8
11:00 Uhr | wolkig | 19 --- --- 23 --- | NO 18 --- | 0.0 | 1014 | 1.5
14:00 Uhr | wolkig | 21 --- --- 26 --- | NO 20 --- | 0.0 | 1015 | 1.7
17:00 Uhr | wolkig | 21 --- --- 24 --- | N 18 --- | 0.0 | 1015 | 1.8
20:00 Uhr | wolkig | 19 22 --- 20 --- | N 18 --- | 0.0 | 1015 | 1.6
23:00 Uhr | wolkig | 17 --- --- 16 18 | NO 22 --- | 0.0 0.0 | 1016 | 0.7 8.0
Dienstag - 16.06.2020
| Wetter - | Temperaturen | Wind | Niederschlag | Druck | Sonne
Zeit GZ | Bewölkung | TT MAX MIN TG TM | DD FF FX3 | RR3 RR24 | PPPP | SS3 SS24
02:00 Uhr | wolkig | 16 --- --- 16 --- | NO 20 --- | 0.0 | 1016 | 0.0
05:00 Uhr | wolkig | 16 --- --- 15 --- | O 22 --- | 0.0 | 1015 | 0.1
08:00 Uhr | wolkig | 17 --- 16 18 --- | O 24 --- | 0.0 | 1015 | 0.9
11:00 Uhr | wolkig | 20 --- --- 24 --- | O 20 --- | 0.0 | 1015 | 1.5
14:00 Uhr | wolkig | 21 --- --- 26 --- | NO 22 --- | 0.0 | 1016 | 1.8
17:00 Uhr | wolkig | 21 --- --- 25 --- | N 24 --- | 0.0 | 1015 | 1.8
20:00 Uhr | wolkig | 19 23 --- 20 --- | N 22 41 | 0.0 | 1016 | 1.5
23:00 Uhr | wolkig | 17 --- --- 16 19 | NO 20 --- | 0.0 0.0 | 1016 | 0.6 8.2
Mittwoch - 17.06.2020
| Wetter - | Temperaturen | Wind | Niederschlag | Druck | Sonne
Zeit GZ | Bewölkung | TT MAX MIN TG TM | DD FF FX3 | RR3 RR24 | PPPP | SS3 SS24
02:00 Uhr | wolkig | 17 --- --- 16 --- | NO 20 --- | 0.0 | 1016 | 0.0
---:00 Uhr | --- | --- --- --- --- --- | --- --- --- | --- | --- | ---
---:00 Uhr | --- | --- --- --- --- --- | --- --- --- | --- | --- | ---
---:00 Uhr | --- | --- --- --- --- --- | --- --- --- | --- | --- | ---
---:00 Uhr | --- | --- --- --- --- --- | --- --- --- | --- | --- | ---
---:00 Uhr | --- | --- --- --- --- --- | --- --- --- | --- | --- | ---
---:00 Uhr | --- | --- --- --- --- --- | --- --- --- | --- | --- | ---
---:00 Uhr | --- | --- --- --- --- --- | --- --- --- | --- --- | --- | ---


Wetter : Wetter/Bewölkung zum Termin (aktuelle Stunde) TT : Lufttemperatur in Grad Celsius zum Termin MAX : Maximum Lufttemperatur in Grad Celsius letzte 12 Stunden MIN : Minimum Lufttemperatur der vergangenen Nacht in Grad Celsius letzte 12 Stunden TG : Temperatur in 5cm überm Erdboden TM : Tagesmittel Lufttemperatur in Grad Celsius letzte 24 Stunden DD : Windrichtung zum Termin FF : Windgeschwindigkeit zum Termin FX1 : höchste Windspitze im Bezugszeitraum letzte 1 Stunde in km/h FX3 : höchste Windspitze im Bezugszeitraum letzte 3 Stunden in km/h PPPP : reduzierter Luftdruck auf Meereshöhe in hPa zum Termin RR1 : Niederschlagsmenge im Bezugszeitraum letzte 1 Stunde in mm = l/qm RR3 : Niederschlagsmenge im Bezugszeitraum letzte 3 Stunden in mm = l/qm RR24 : Niederschlagsmenge im Bezugszeitraum letzte 24 Stunden in mm = l/qm SS1 : Sonnenscheindauer letzte 1 Stunde SS3 : Sonnenscheindauer letzte 3 Stunden SS24 : Sonnenscheindauer letzte 24 Stunden --- : Wert nicht vorhanden